Location: Atbuku
(36.4936°N, 30.4362°E)
Time: 21:52:29
(UTC+00:00)

Hubble Space Telescope - Pass Details

Date: 11 December 2025
Orbit: 479 x 482 km, 28.5° (Epoch: 12 January)

Event Time Altitude Azimuth Distance (km) Brightness Sun altitude
Rises 16:38:58 0° 245° (WSW) 2,526 5.6 -22.6°
Reaches altitude 10° 16:41:27 10° 230° (SW) 1,647 4.1 -23.1°
Enters shadow 16:44:19 23° 181° (S) 1,049 2.3 -23.7°
